Weather History for Tillamook, OR

Change the Weather History Date:

Saturday, October 5, 2013

  Actual Average (KMMV) Record (KMMV)
Temperature  
Mean Temperature 52 °F 55 °F  
Max Temperature 68 °F 68 °F 88 °F (1980)
Min Temperature 35 °F 43 °F 29 °F (1956)
Degree Days  
Heating Degree Days 14 10  
Month to date heating degree days 45  
Since 1 July heating degree days 261  
Cooling Degree Days 0 0  
Month to date cooling degree days 0  
Year to date cooling degree days 214  
Growing Degree Days 2 (Base 50)    
Moisture  
Dew Point 45 °F    
Average Humidity 83    
Maximum Humidity 100    
Minimum Humidity 46    
Precipitation  
Precipitation 0.00 in 0.07 in 1.00 in (1950)
Month to date precipitation 0.32  
Year to date precipitation 24.03  
Sea Level Pressure  
Sea Level Pressure 30.25 in    
Wind  
Wind Speed 0 mph (NNW)    
Max Wind Speed 4 mph    
Max Gust Speed -    
Visibility 10 miles    
Events      
T = Trace of Precipitation, MM = Missing Value Source: NWS Daily Summary

Daily Weather History Graph

Daily Weather History Graph

Search for Another Location

Airport:

Trip Planner

Search our weather history database for the weather conditions in past years. The results will help you decide how hot, cold, wet, or windy it might be!

Date:

Astronomy

Oct. 05, 2013 Rise Set
Actual Time 8:18 AM MDT 7:47 PM MDT
Civil Twilight 7:49 AM MDT 8:16 PM MDT
Nautical Twilight 7:15 AM MDT 8:51 PM MDT
Astronomical Twilight 6:40 AM MDT 9:25 PM MDT
Moon 9:08 AM MDT (10/5) 8:04 PM MDT (10/5)
Length of Visible Light 12h 27m
Length of Day
11h 28m
New Moon, 1% of the Moon is Illuminated
Oct 5
New Moon
Oct 11
First Quarter
Oct 18
Full
Oct 26
Last Quarter
Nov 3
New

Hourly Weather History & Observations

Time (MDT) Temp. Dew Point Humidity Pressure Visibility Wind Dir Wind Speed Gust Speed Precip Events Conditions
12:15 AM 44.6 °F 42.8 °F 93% 30.35 in 10.0 mi Calm Calm - N/A   Clear
12:35 AM 42.8 °F 41.0 °F 93% 30.35 in 10.0 mi Calm Calm - N/A   Clear
12:55 AM 42.8 °F 41.0 °F 93% 30.35 in 10.0 mi Calm Calm - N/A   Clear
1:15 AM 42.8 °F 41.0 °F 93% 30.36 in 10.0 mi Calm Calm - N/A   Clear
1:35 AM 41.0 °F 41.0 °F 100% 30.36 in 10.0 mi Calm Calm - N/A   Clear
1:55 AM 42.8 °F 42.8 °F 100% 30.35 in 10.0 mi Calm Calm - N/A   Clear
2:15 AM 41.0 °F 41.0 °F 100% 30.35 in 10.0 mi Calm Calm - N/A   Clear
2:35 AM 42.8 °F 41.0 °F 93% 30.35 in 10.0 mi Calm Calm - N/A   Clear
2:55 AM 41.0 °F 41.0 °F 100% 30.35 in 10.0 mi Calm Calm - N/A   Clear
3:15 AM 41.0 °F 41.0 °F 100% 30.34 in 10.0 mi Calm Calm - N/A   Clear
3:35 AM 39.2 °F 39.2 °F 100% 30.34 in 10.0 mi Calm Calm - N/A   Clear
3:55 AM 41.0 °F 41.0 °F 100% 30.33 in 10.0 mi Calm Calm - N/A   Clear
4:15 AM 39.2 °F 39.2 °F 100% 30.33 in 10.0 mi Calm Calm - N/A   Clear
4:35 AM 41.0 °F 39.2 °F 93% 30.33 in 10.0 mi Calm Calm - N/A   Clear
4:55 AM 39.2 °F 39.2 °F 100% 30.32 in 10.0 mi Calm Calm - N/A   Clear
5:15 AM 37.4 °F 37.4 °F 100% 30.32 in 10.0 mi Calm Calm - N/A   Clear
5:35 AM 39.2 °F 37.4 °F 93% 30.32 in 10.0 mi Calm Calm - N/A   Clear
5:55 AM 37.4 °F 37.4 °F 100% 30.31 in 10.0 mi Calm Calm - N/A   Clear
6:15 AM 39.2 °F 37.4 °F 93% 30.31 in 10.0 mi Calm Calm - N/A   Clear
6:35 AM 37.4 °F 37.4 °F 100% 30.31 in 10.0 mi Calm Calm - N/A   Clear
6:55 AM 37.4 °F 37.4 °F 100% 30.30 in 10.0 mi Calm Calm - N/A   Clear
7:15 AM 37.4 °F 37.4 °F 100% 30.30 in 10.0 mi Calm Calm - N/A   Clear
7:35 AM 37.4 °F 37.4 °F 100% 30.30 in 10.0 mi Calm Calm - N/A   Clear
7:55 AM 37.4 °F 37.4 °F 100% 30.30 in 10.0 mi Calm Calm - N/A   Clear
8:15 AM 37.4 °F 37.4 °F 100% 30.30 in 10.0 mi Calm Calm - N/A   Clear
8:35 AM 35.6 °F 35.6 °F 100% 30.30 in 10.0 mi Calm Calm - N/A   Clear
8:55 AM 37.4 °F 37.4 °F 100% 30.30 in 10.0 mi Calm Calm - N/A   Clear
9:15 AM 37.4 °F 37.4 °F 100% 30.30 in 10.0 mi Calm Calm - N/A   Clear
9:35 AM 41.0 °F 41.0 °F 100% 30.30 in 10.0 mi Calm Calm - N/A   Clear
9:55 AM 42.8 °F 42.8 °F 100% 30.30 in 10.0 mi Calm Calm - N/A   Clear
10:15 AM 44.6 °F 42.8 °F 93% 30.29 in 10.0 mi Calm Calm - N/A   Clear
10:35 AM 46.4 °F 44.6 °F 93% 30.29 in 10.0 mi Calm Calm - N/A   Clear
10:55 AM 50.0 °F 46.4 °F 87% 30.28 in 10.0 mi Calm Calm - N/A   Clear
11:15 AM 51.8 °F 46.4 °F 82% 30.28 in 10.0 mi Calm Calm - N/A   Clear
11:35 AM 55.4 °F 48.2 °F 77% 30.27 in 10.0 mi Calm Calm - N/A   Clear
11:55 AM 59.0 °F 48.2 °F 67% 30.26 in 10.0 mi Calm Calm - N/A   Clear
12:15 PM 59.0 °F 48.2 °F 67% 30.25 in 10.0 mi Calm Calm - N/A   Clear
12:35 PM 62.6 °F 46.4 °F 55% 30.25 in 10.0 mi Calm Calm - N/A   Clear
12:55 PM 64.4 °F 44.6 °F 49% 30.25 in 10.0 mi Calm Calm - N/A   Clear
1:15 PM 64.4 °F 44.6 °F 49% 30.25 in 10.0 mi Calm Calm - N/A   Clear
1:35 PM 64.4 °F 46.4 °F 52% 30.24 in 10.0 mi Calm Calm - N/A   Clear
1:55 PM 66.2 °F 46.4 °F 49% 30.23 in 10.0 mi Calm Calm - N/A   Clear
2:15 PM 68.0 °F 46.4 °F 46% 30.22 in 10.0 mi Calm Calm - N/A   Clear
2:35 PM 68.0 °F 46.4 °F 46% 30.21 in 10.0 mi Calm Calm - N/A   Clear
2:55 PM 68.0 °F 48.2 °F 49% 30.20 in 10.0 mi NNW 3.5 mph - N/A   Clear
3:15 PM 68.0 °F 46.4 °F 46% 30.20 in 10.0 mi Calm Calm - N/A   Clear
3:35 PM 68.0 °F 50.0 °F 52% 30.20 in 10.0 mi Calm Calm - N/A   Clear
3:55 PM 68.0 °F 50.0 °F 52% 30.19 in 10.0 mi Calm Calm - N/A   Clear
4:15 PM 68.0 °F 51.8 °F 56% 30.18 in 10.0 mi Calm Calm - N/A   Clear
4:35 PM 66.2 °F 53.6 °F 64% 30.18 in 10.0 mi Calm Calm - N/A   Clear
4:55 PM 66.2 °F 53.6 °F 64% 30.18 in 10.0 mi Calm Calm - N/A   Clear
5:15 PM 66.2 °F 53.6 °F 64% 30.17 in 10.0 mi Calm Calm - N/A   Clear
5:35 PM 64.4 °F 51.8 °F 64% 30.17 in 10.0 mi Calm Calm - N/A   Clear
5:55 PM 66.2 °F 51.8 °F 60% 30.17 in 10.0 mi Calm Calm - N/A   Clear
6:15 PM 64.4 °F 51.8 °F 64% 30.16 in 10.0 mi Calm Calm - N/A   Clear
6:35 PM 64.4 °F 51.8 °F 64% 30.16 in 10.0 mi Calm Calm - N/A   Clear
6:55 PM 62.6 °F 53.6 °F 72% 30.16 in 10.0 mi Calm Calm - N/A   Clear
7:15 PM 60.8 °F 53.6 °F 77% 30.15 in 10.0 mi Calm Calm - N/A   Clear
7:35 PM 59.0 °F 53.6 °F 82% 30.15 in 10.0 mi Calm Calm - N/A   Clear
7:55 PM 59.0 °F 51.8 °F 77% 30.15 in 10.0 mi Calm Calm - N/A   Clear
8:15 PM 57.2 °F 53.6 °F 88% 30.15 in 10.0 mi Calm Calm - N/A   Clear
8:35 PM 55.4 °F 51.8 °F 88% 30.15 in 10.0 mi Calm Calm - N/A   Clear
8:55 PM 53.6 °F 50.0 °F 88% 30.15 in 10.0 mi Calm Calm - N/A   Clear
9:15 PM 51.8 °F 50.0 °F 94% 30.15 in 10.0 mi Calm Calm - N/A   Clear
9:35 PM 51.8 °F 50.0 °F 94% 30.15 in 10.0 mi Calm Calm - N/A   Clear
9:55 PM 50.0 °F 50.0 °F 100% 30.15 in 10.0 mi Calm Calm - N/A   Clear
10:15 PM 50.0 °F 48.2 °F 94% 30.15 in 10.0 mi Calm Calm - N/A   Clear
10:35 PM 50.0 °F 48.2 °F 94% 30.14 in 10.0 mi Calm Calm - N/A   Clear
10:55 PM 48.2 °F 46.4 °F 93% 30.15 in 10.0 mi Calm Calm - N/A   Clear
11:15 PM 48.2 °F 46.4 °F 93% 30.14 in 10.0 mi Calm Calm - N/A   Clear
11:35 PM 46.4 °F 46.4 °F 100% 30.14 in 10.0 mi Calm Calm - N/A   Clear
11:55 PM 46.4 °F 44.6 °F 93% 30.13 in 10.0 mi Calm Calm - N/A   Clear